Back to catalog

CONNECTA IOT-8

AliveCommunicationsSSO
NORAD 62695·PAYLOAD·🇹🇷 Turkey

Launched Jan 14, 2025 from Vandenberg Space Force Base

Loading…

Next Passes (next 24 hours)

TLE

FreshSource: Space-Track

Epoch: Sep 13, 2026, 22:59 UTC

1 62695U 25009CQ  26256.95779127  .00001777  00000-0  17468-3 0  9993
2 62695  97.7017 333.0210 0004084  75.5996 284.5677 14.93380059 90549

Track CONNECTA IOT-8 in real time with AllMySat

Download on the App Store